This demonstration page uses our WeatherBlox Daily Observations layout. Learn more.

Left ArrowRight Arrow

Hourly Observations for May 24, 2016

Temp ( °F °C ) Dew Point ( °F °C ) Humidity (%) Winds ( mph kmh ) Pressure ( in mb ) Visibility ( mi km ) Precip ( " mm )
12:51 am 00:51 Clear 69 20.6 21 -6.1 16 16 NW 12 19 29.71 1006 10 16 0.00 0.00
1:51 am 01:51 Clear 67 19.4 21 -6.1 17 17 NNW 12 19 29.71 1006 10 16 0.00 0.00
2:51 am 02:51 Clear 62 16.7 24 -4.4 23 23 S 7 11 29.73 1007 10 16 0.00 0.00
3:51 am 03:51 Clear 56 13.3 23 -5 28 28 E 5 7 29.76 1008 10 16 0.00 0.00
4:51 am 04:51 Clear 56 13.3 23 -5 28 28 ESE 6 9 29.76 1008 10 16 0.00 0.00
5:51 am 05:51 Sunny 56 13.3 23 -5 28 28 E 5 7 29.77 1008 10 16 0.00 0.00
6:51 am 06:51 Sunny 63 17.2 24 -4.4 23 23 SE 3 6 29.79 1009 10 16 0.00 0.00
7:51 am 07:51 Sunny 73 22.8 24 -4.4 16 16 Calm 29.79 1009 10 16 0.00 0.00
8:51 am 08:51 Sunny 76 24.4 25 -3.9 15 15 NE 6 9 29.79 1009 10 16 0.00 0.00
9:51 am 09:51 Sunny 78 25.6 22 -5.6 12 12 VRB 3 6 29.79 1009 10 16 0.00 0.00
10:51 am 10:51 Sunny 82 27.8 22 -5.6 11 11 N 10 17 29.78 1009 10 16 0.00 0.00
11:51 am 11:51 Sunny 85 29.4 21 -6.1 9 9 VRB 5 7 29.77 1008 10 16 0.00 0.00
12:51 pm 12:51 Sunny 87 30.6 19 -7.2 8 8 VRB 3 6 29.76 1008 10 16 0.00 0.00
1:51 pm 13:51 Sunny 87 30.6 19 -7.2 8 8 WNW 9 15 29.75 1007 10 16 0.00 0.00
2:51 pm 14:51 Sunny 88 31.1 19 -7.2 8 8 Calm 29.74 1007 10 16 0.00 0.00
3:51 pm 15:51 Sunny 91 32.8 18 -7.8 7 7 WSW 18 30 29.72 1006 10 16 0.00 0.00
4:51 pm 16:51 Sunny 89 31.7 16 -8.9 7 7 W 17 28 29.73 1007 10 16 0.00 0.00
5:51 pm 17:51 Sunny 87 30.6 15 -9.4 7 7 W 20 31 29.75 1007 10 16 0.00 0.00
6:51 pm 18:51 Sunny 83 28.3 16 -8.9 8 8 NW 17 28 29.76 1008 10 16 0.00 0.00
7:51 pm 19:51 Clear 79 26.1 16 -8.9 9 9 NW 13 20 29.77 1008 10 16 0.00 0.00
8:51 pm 20:51 Clear 76 24.4 19 -7.2 12 12 NNW 15 24 29.80 1009 10 16 0.00 0.00
9:51 pm 21:51 Clear 74 23.3 21 -6.1 14 14 NW 13 20 29.81 1010 10 16 0.00 0.00
10:51 pm 22:51 Clear 71 21.7 21 -6.1 15 15 WNW 14 22 29.82 1010 10 16 0.00 0.00
11:51 pm 23:51 Clear 70 21.1 22 -5.6 16 16 WNW 13 20 29.82 1010 10 16 0.00 0.00

Powered by AerisWeather